User: anonymous   Login
Location: Savignano sul Rubicone
(44.0950°N, 12.4090°E)
Time: 21:45:25
(UTC+01:00)
Language:

ESTCUBE 1 - Orbit

View from above orbital plane
View from above orbital plane
View from above satellite
View from above satellite

Ground track
Ground track

The orbit data is extracted from the following two-line orbital elements,

1 39161U 13021C   19349.49079273  .00000114  00000-0  25917-4 0  9998
2 39161  97.9788  71.1367 0010814 109.1855 251.0555 14.72260419354829
Epoch (UTC): 15 December 2019 11:46:44
Eccentricity: 0.0010814
inclination: 97.9788°
perigee height: 646 km
apogee height: 661 km
right ascension of ascending node: 71.1367°
argument of perigee: 109.1855°
revolutions per day: 14.72260419
mean anomaly at epoch: 251.0555°
orbit number at epoch: 35482

The dashed part of the orbit path shows where the satellite is in the earth's shadow,  

DLR